Toronto, Ontario

7:50 AM EDT on September 24, 2017 (GMT -0400)
Toronto

Weather History for CYTZ - January, 2013

Change the Weather History Date:

Thursday, January 10, 2013

  Actual Average Record
Temperature  
Mean Temperature 38 °F -  
Max Temperature 42 °F 29 °F 44 °F (2016)
Min Temperature 35 °F 18 °F -4 °F (2004)
Degree Days  
Heating Degree Days 26    
Moisture  
Dew Point 28 °F    
Average Humidity 65    
Maximum Humidity 81    
Minimum Humidity 36    
Precipitation  
Precipitation 0.00 in 0.07 in - ()
Sea Level Pressure  
Sea Level Pressure 30.50 in    
Wind  
Wind Speed 9 mph ()    
Max Wind Speed 18 mph    
Max Gust Speed 30 mph    
Visibility 9.2 miles    
Events      
Averages and records for this station are not official NWS values.
T = Trace of Precipitation, MM = Missing Value Source: Averaged Metar Reports

Daily Weather History Graph

Daily Weather History Graph

Search for Another Location

Airport or City:

Trip Planner

Search our weather history database for the weather conditions in past years. The results will help you decide how hot, cold, wet, or windy it might be!

Date:

Astronomy

Jan. 10, 2013 Rise Set
Actual Time 7:49 AM EST 5:00 PM EST
Civil Twilight 7:17 AM EST 5:33 PM EST
Nautical Twilight 6:42 AM EST 6:08 PM EST
Astronomical Twilight 6:07 AM EST 6:43 PM EST
Moon 6:27 AM EST (1/10) 4:07 PM EST (1/10)
Length of Visible Light 10h 15m
Length of Day
9h 11m
Waning Crescent, 2% of the Moon is Illuminated
Jan 10
Waning Crescent
Jan 11
New
Jan 18
First Quarter
Jan 26
Full
Feb 3
Last Quarter

Hourly Weather History & Observations

Time (EST) Temp. Windchill Dew Point Humidity Pressure Visibility Wind Dir Wind Speed Gust Speed Precip Events Conditions
12:00 AM 41.0 °F 33.5 °F 26.6 °F 57% 30.36 in 9.0 mi WNW 13.8 mph 21.9 mph N/A   Overcast
1:00 AM 40 °F - 22 °F 36% 30.40 in 10 mi WNW 18.4 mph - -  
1:00 AM 41.0 °F 32.8 °F 23.0 °F 49% 30.40 in 9.0 mi WNW 16.1 mph 29.9 mph N/A   Mostly Cloudy
2:00 AM 39.2 °F 32.0 °F 23.0 °F 52% 30.41 in 9.0 mi WNW 11.5 mph 23.0 mph N/A   Mostly Cloudy
3:00 AM 37.4 °F 30.8 °F 24.8 °F 60% 30.43 in 9.0 mi WNW 9.2 mph - N/A   Clear
4:00 AM 37.4 °F 29.3 °F 28.4 °F 70% 30.46 in 9.0 mi West 12.7 mph - N/A   Overcast
5:00 AM 35.6 °F 28.6 °F 26.6 °F 70% 30.48 in 9.0 mi West 9.2 mph - N/A   Overcast
6:00 AM 37.4 °F 29.8 °F 26.6 °F 65% 30.49 in 9.0 mi West 11.5 mph - N/A   Overcast
7:00 AM 37 °F - 28 °F 59% 30.53 in 10 mi West 11.5 mph - -   Overcast
7:00 AM 37.4 °F 29.8 °F 28.4 °F 70% 30.53 in 9.0 mi West 11.5 mph - N/A   Overcast
8:00 AM 37.4 °F 29.8 °F 26.6 °F 65% 30.58 in 9.0 mi West 11.5 mph - N/A   Overcast
9:00 AM 37.4 °F 31.4 °F 26.6 °F 65% 30.61 in 9.0 mi West 8.1 mph - N/A   Scattered Clouds
10:00 AM 39.2 °F 35.9 °F 24.8 °F 56% 30.61 in 9.0 mi NW 4.6 mph - N/A   Clear
11:00 AM 41.0 °F 36.4 °F 24.8 °F 53% 30.59 in 9.0 mi North 6.9 mph - N/A   Clear
12:00 PM 42.8 °F 39.3 °F 24.8 °F 49% 30.57 in 9.0 mi West 5.8 mph - N/A   Clear
1:00 PM 41 °F - 30 °F 53% 30.54 in 10 mi SSW 8.1 mph - -  
1:00 PM 41.0 °F 35.8 °F 30.2 °F 65% 30.54 in 9.0 mi SSW 8.1 mph - N/A   Clear
4:00 PM 39.2 °F 34.2 °F 30.2 °F 70% 30.54 in 9.0 mi SSE 6.9 mph - N/A   Clear
5:00 PM 37.4 °F 34.9 °F 30.2 °F 75% 30.53 in 9.0 mi South 3.5 mph - N/A   Clear
6:00 PM 35.6 °F - 30.2 °F 81% 30.53 in 9.0 mi SE 2.3 mph - N/A   Clear
7:00 PM 35 °F - 31 °F 79% 30.53 in 10 mi ESE 2.3 mph - -  
7:00 PM 35.6 °F - 30.2 °F 81% 30.53 in 9.0 mi ESE 2.3 mph - N/A   Clear
8:00 PM 37.4 °F 33.8 °F 32.0 °F 81% 30.51 in 9.0 mi East 4.6 mph - N/A   Overcast
9:00 PM 37.4 °F 32.1 °F 32.0 °F 81% 30.50 in 9.0 mi ESE 6.9 mph - N/A   Mostly Cloudy
10:00 PM 37.4 °F 32.1 °F 30.2 °F 75% 30.48 in 9.0 mi East 6.9 mph - N/A   Overcast
11:00 PM 39.2 °F 32.5 °F 32.0 °F 75% 30.44 in 9.0 mi East 10.4 mph - N/A   Mostly Cloudy